Change the Weather History Date:

Saturday, April 13, 2013

  Actual Average Record
Temperature  
Mean Temperature 42 °F -  
Max Temperature 50 °F 53 °F 75 °F (2014)
Min Temperature 35 °F 34 °F 24 °F (2009)
Degree Days  
Heating Degree Days 22    
Moisture  
Dew Point 30 °F    
Average Humidity 66    
Maximum Humidity 93    
Minimum Humidity 46    
Precipitation  
Precipitation 0.00 in - - ()
Sea Level Pressure  
Sea Level Pressure 29.84 in    
Wind  
Wind Speed 6 mph (West)    
Max Wind Speed 14 mph    
Max Gust Speed 21 mph    
Visibility 9 miles    
Events      
Averages and records for this station are not official NWS values.
T = Trace of Precipitation, MM = Missing Value Source: NWS Daily Summary

Daily Weather History Graph

Daily Weather History Graph

Search for Another Location

Airport or City:

Trip Planner

Search our weather history database for the weather conditions in past years. The results will help you decide how hot, cold, wet, or windy it might be!

Date:

Astronomy

Apr. 13, 2013 Rise Set
Actual Time 6:21 AM EDT 7:37 PM EDT
Civil Twilight 5:53 AM EDT 8:06 PM EDT
Nautical Twilight 5:18 AM EDT 8:41 PM EDT
Astronomical Twilight 4:42 AM EDT 9:17 PM EDT
Moon 8:09 AM EDT (4/13) 11:02 PM EDT (4/13)
Length of Visible Light 14h 13m
Length of Day
13h 16m
Waxing Crescent, 10% of the Moon is Illuminated
Apr 13
Waxing Crescent
Apr 18
First Quarter
Apr 25
Full
May 2
Last Quarter
May 9
New

Hourly Weather History & Observations

Time (EDT) Temp. Windchill Dew Point Humidity Pressure Visibility Wind Dir Wind Speed Gust Speed Precip Events Conditions
12:15 AM 35.6 °F 31.7 °F 33.8 °F 93% 29.76 in 5.0 mi North 4.6 mph - N/A   Overcast
12:35 AM 35.6 °F 32.8 °F 33.8 °F 93% 29.78 in 10.0 mi WNW 3.5 mph - N/A   Overcast
12:55 AM 37.4 °F 33.8 °F 33.8 °F 87% 29.79 in 2.5 mi WNW 4.6 mph - N/A   Overcast
1:15 AM 37.4 °F 33.8 °F 33.8 °F 87% 29.78 in 3.0 mi WNW 4.6 mph - N/A   Overcast
1:35 AM 37.4 °F 32.8 °F 33.8 °F 87% 29.80 in 4.0 mi WSW 5.8 mph - N/A   Overcast
1:55 AM 37.4 °F 31.4 °F 33.8 °F 87% 29.80 in 5.0 mi WSW 8.1 mph - N/A   Overcast
2:15 AM 37.4 °F 31.4 °F 33.8 °F 87% 29.79 in 9.0 mi WNW 8.1 mph - N/A   Overcast
2:35 AM 37.4 °F 33.8 °F 33.8 °F 87% 29.79 in 10.0 mi NW 4.6 mph - N/A   Overcast
2:55 AM 37.4 °F 34.9 °F 33.8 °F 87% 29.78 in 10.0 mi NW 3.5 mph - N/A   Overcast
3:15 AM 37.4 °F - 33.8 °F 87% 29.78 in 10.0 mi Calm Calm - N/A   Overcast
3:35 AM 37.4 °F - 33.8 °F 87% 29.78 in 10.0 mi Calm Calm - N/A   Overcast
3:55 AM 37.4 °F - 33.8 °F 87% 29.78 in 10.0 mi Calm Calm - N/A   Overcast
4:15 AM 37.4 °F 34.9 °F 33.8 °F 87% 29.79 in 1.2 mi WNW 3.5 mph - N/A   Overcast
4:35 AM 35.6 °F 31.7 °F 32.0 °F 87% 29.80 in 10.0 mi West 4.6 mph - N/A   Scattered Clouds
4:55 AM 35.6 °F 31.7 °F 32.0 °F 87% 29.80 in 10.0 mi West 4.6 mph - N/A   Clear
5:15 AM 35.6 °F 31.7 °F 30.2 °F 81% 29.80 in 10.0 mi West 4.6 mph - N/A   Partly Cloudy
5:35 AM 35.6 °F - 32.0 °F 87% 29.80 in 10.0 mi Calm Calm - N/A   Mostly Cloudy
5:55 AM 35.6 °F 32.8 °F 32.0 °F 87% 29.81 in 10.0 mi WNW 3.5 mph - N/A   Overcast
6:15 AM 35.6 °F 32.8 °F 32.0 °F 87% 29.80 in 10.0 mi NW 3.5 mph - N/A   Overcast
6:35 AM 35.6 °F - 30.2 °F 81% 29.81 in 10.0 mi Calm Calm - N/A   Overcast
6:55 AM 35.6 °F - 30.2 °F 81% 29.82 in 10.0 mi Calm Calm - N/A   Overcast
7:15 AM 35.6 °F 31.7 °F 32.0 °F 87% 29.82 in 10.0 mi West 4.6 mph - N/A   Overcast
7:35 AM 35.6 °F 31.7 °F 32.0 °F 87% 29.83 in 10.0 mi West 4.6 mph - N/A   Overcast
7:55 AM 37.4 °F 32.8 °F 32.0 °F 81% 29.82 in 10.0 mi WNW 5.8 mph - N/A   Overcast
8:15 AM 37.4 °F 33.8 °F 32.0 °F 81% 29.83 in 10.0 mi West 4.6 mph - N/A   Overcast
8:35 AM 37.4 °F 33.8 °F 33.8 °F 87% 29.84 in 10.0 mi WSW 4.6 mph - N/A   Overcast
8:55 AM 39.2 °F 35.0 °F 33.8 °F 81% 29.84 in 10.0 mi West 5.8 mph - N/A   Overcast
9:15 AM 39.2 °F 35.0 °F 33.8 °F 81% 29.85 in 10.0 mi West 5.8 mph - N/A   Overcast
9:35 AM 41.0 °F 36.4 °F 33.8 °F 76% 29.85 in 10.0 mi West 6.9 mph - N/A   Overcast
9:55 AM 42.8 °F 38.6 °F 33.8 °F 70% 29.85 in 10.0 mi WNW 6.9 mph - N/A   Overcast
10:15 AM 42.8 °F 36.2 °F 32.0 °F 66% 29.86 in 10.0 mi WNW 12.7 mph 16.1 mph N/A   Overcast
10:35 AM 42.8 °F 35.8 °F 30.2 °F 61% 29.85 in 10.0 mi NW 13.8 mph 19.6 mph N/A   Overcast
10:55 AM 44.6 °F 38.8 °F 30.2 °F 57% 29.86 in 10.0 mi WNW 11.5 mph 18.4 mph N/A   Overcast
11:15 AM 44.6 °F 40.2 °F 30.2 °F 57% 29.86 in 10.0 mi WNW 8.1 mph 16.1 mph N/A   Overcast
11:35 AM 46.4 °F 41.5 °F 30.2 °F 53% 29.86 in 10.0 mi West 10.4 mph 16.1 mph N/A   Mostly Cloudy
11:55 AM 46.4 °F 41.5 °F 28.4 °F 50% 29.86 in 10.0 mi West 10.4 mph 20.7 mph N/A   Overcast
12:15 PM 46.4 °F 41.9 °F 28.4 °F 50% 29.85 in 10.0 mi West 9.2 mph - N/A   Overcast
12:35 PM 46.4 °F 41.1 °F 30.2 °F 53% 29.85 in 10.0 mi WSW 11.5 mph 16.1 mph N/A   Overcast
12:55 PM 48.2 °F - 30.2 °F 50% 29.85 in 10.0 mi West 6.9 mph 17.3 mph N/A   Overcast
1:15 PM 46.4 °F 42.4 °F 28.4 °F 50% 29.85 in 10.0 mi WNW 8.1 mph - N/A   Overcast
1:35 PM 46.4 °F 42.9 °F 28.4 °F 50% 29.84 in 10.0 mi West 6.9 mph - N/A   Overcast
1:55 PM 48.2 °F - 30.2 °F 50% 29.84 in 10.0 mi SW 10.4 mph 16.1 mph N/A   Overcast
2:15 PM 48.2 °F - 28.4 °F 46% 29.83 in 10.0 mi WNW 10.4 mph 16.1 mph N/A   Overcast
2:35 PM 48.2 °F - 30.2 °F 50% 29.83 in 10.0 mi West 11.5 mph 19.6 mph N/A   Overcast
2:55 PM 50.0 °F - 30.2 °F 47% 29.83 in 10.0 mi West 12.7 mph 19.6 mph N/A   Overcast
3:15 PM 48.2 °F - 28.4 °F 46% 29.83 in 10.0 mi West 10.4 mph 20.7 mph N/A   Overcast
3:35 PM 48.2 °F - 28.4 °F 46% 29.84 in 10.0 mi WSW 10.4 mph 16.1 mph N/A   Overcast
3:55 PM 48.2 °F - 28.4 °F 46% 29.84 in 10.0 mi West 8.1 mph - N/A   Overcast
4:15 PM 48.2 °F - 28.4 °F 46% 29.84 in 10.0 mi West 6.9 mph - N/A   Overcast
4:35 PM 48.2 °F - 28.4 °F 46% 29.85 in 10.0 mi West 8.1 mph 18.4 mph N/A   Overcast
4:55 PM 46.4 °F 41.5 °F 30.2 °F 53% 29.85 in 10.0 mi WSW 10.4 mph 16.1 mph N/A   Overcast
5:15 PM 48.2 °F - 30.2 °F 50% 29.83 in 10.0 mi WSW 10.4 mph - N/A   Overcast
5:35 PM 48.2 °F - 28.4 °F 46% 29.85 in 10.0 mi West 10.4 mph 16.1 mph N/A   Scattered Clouds
5:55 PM 46.4 °F 41.9 °F 28.4 °F 50% 29.88 in 10.0 mi West 9.2 mph 18.4 mph N/A   Mostly Cloudy
6:15 PM 46.4 °F 43.5 °F 28.4 °F 50% 29.87 in 10.0 mi West 5.8 mph - N/A   Overcast
6:35 PM 46.4 °F 41.9 °F 28.4 °F 50% 29.88 in 10.0 mi West 9.2 mph - N/A   Overcast
6:55 PM 46.4 °F 42.4 °F 28.4 °F 50% 29.89 in 10.0 mi West 8.1 mph 17.3 mph N/A   Overcast
7:15 PM 46.4 °F 41.1 °F 28.4 °F 50% 29.89 in 10.0 mi West 11.5 mph 18.4 mph N/A   Overcast
7:35 PM 44.6 °F 40.7 °F 28.4 °F 53% 29.90 in 10.0 mi West 6.9 mph - N/A   Overcast
8:15 PM 44.6 °F 40.7 °F 28.4 °F 53% 29.92 in 10.0 mi West 6.9 mph - N/A   Overcast
8:35 PM 44.6 °F 40.7 °F 28.4 °F 53% 29.92 in 10.0 mi WSW 6.9 mph - N/A   Overcast
8:55 PM 44.6 °F 41.4 °F 28.4 °F 53% 29.92 in 10.0 mi WNW 5.8 mph - N/A   Overcast
9:15 PM 42.8 °F 37.5 °F 26.6 °F 53% 29.91 in 10.0 mi WNW 9.2 mph - N/A   Overcast
9:35 PM 42.8 °F 39.3 °F 26.6 °F 53% 29.92 in 10.0 mi West 5.8 mph - N/A   Overcast
9:55 PM 42.8 °F 40.1 °F 26.6 °F 53% 29.92 in 10.0 mi WSW 4.6 mph - N/A   Overcast
10:15 PM 42.8 °F 40.1 °F 26.6 °F 53% 29.92 in 10.0 mi West 4.6 mph - N/A   Overcast
10:35 PM 42.8 °F 40.1 °F 26.6 °F 53% 29.92 in 10.0 mi SW 4.6 mph - N/A   Mostly Cloudy
10:55 PM 41.0 °F - 26.6 °F 57% 29.92 in 10.0 mi Calm Calm - N/A   Mostly Cloudy
11:15 PM 41.0 °F 39.0 °F 26.6 °F 57% 29.92 in 10.0 mi SW 3.5 mph - N/A   Overcast
11:35 PM 42.8 °F 39.3 °F 26.6 °F 53% 29.92 in 10.0 mi SSW 5.8 mph - N/A   Overcast
11:55 PM 41.0 °F 38.0 °F 26.6 °F 57% 29.92 in 10.0 mi West 4.6 mph - N/A   Overcast